TimeEDT,TemperatureF,Dew PointF,Humidity,Sea Level PressureIn,VisibilityMPH,Wind Direction,Wind SpeedMPH,Gust SpeedMPH,PrecipitationIn,Events,Conditions,WindDirDegrees,DateUTC
12:54 AM,48.9,34.0,56,30.35,-9999.0,NNE,9.2,-,N/A,,Unknown,30,2013-10-29 04:54:00
1:54 AM,46.9,32.0,56,30.36,-9999.0,NE,8.1,-,N/A,,Unknown,40,2013-10-29 05:54:00
2:54 AM,46.0,32.0,58,30.36,-9999.0,NE,6.9,-,N/A,,Unknown,40,2013-10-29 06:54:00
3:54 AM,46.0,32.0,58,30.36,-9999.0,NE,6.9,-,N/A,,Unknown,40,2013-10-29 07:54:00
4:54 AM,45.0,32.0,60,30.38,-9999.0,NNE,5.8,-,N/A,,Unknown,30,2013-10-29 08:54:00
5:54 AM,45.0,30.9,58,30.40,-9999.0,NNE,5.8,-,N/A,,Unknown,20,2013-10-29 09:54:00
6:54 AM,45.0,30.9,58,30.40,-9999.0,NE,3.5,-,N/A,,Unknown,40,2013-10-29 10:54:00
7:54 AM,45.0,33.1,63,30.41,-9999.0,NNE,6.9,-,N/A,,Unknown,20,2013-10-29 11:54:00
8:54 AM,46.0,32.0,58,30.43,-9999.0,NNE,4.6,-,N/A,,Unknown,30,2013-10-29 12:54:00
9:54 AM,46.9,33.1,59,30.43,-9999.0,NNE,5.8,-,N/A,,Unknown,30,2013-10-29 13:54:00
10:54 AM,48.0,32.0,54,30.43,-9999.0,North,5.8,-,N/A,,Unknown,10,2013-10-29 14:54:00
11:54 AM,50.0,30.0,46,30.41,-9999.0,Variable,5.8,-,N/A,,Unknown,0,2013-10-29 15:54:00
12:54 PM,51.1,28.0,41,30.40,-9999.0,North,5.8,-,N/A,,Unknown,350,2013-10-29 16:54:00
1:54 PM,50.0,28.0,43,30.39,-9999.0,NNW,5.8,-,N/A,,Unknown,330,2013-10-29 17:54:00
2:54 PM,51.1,27.0,39,30.39,-9999.0,Variable,3.5,-,N/A,,Unknown,0,2013-10-29 18:54:00
3:54 PM,51.1,28.0,41,30.39,-9999.0,Variable,4.6,-,N/A,,Unknown,0,2013-10-29 19:54:00
4:54 PM,51.1,30.0,44,30.39,-9999.0,West,3.5,-,N/A,,Unknown,260,2013-10-29 20:54:00
5:54 PM,48.0,32.0,54,30.38,-9999.0,Calm,Calm,-,N/A,,Unknown,0,2013-10-29 21:54:00
6:54 PM,44.1,35.1,71,30.39,-9999.0,Calm,Calm,-,N/A,,Unknown,0,2013-10-29 22:54:00
7:54 PM,39.0,30.9,73,30.39,-9999.0,Calm,Calm,-,N/A,,Unknown,0,2013-10-29 23:54:00
8:54 PM,39.9,34.0,79,30.39,-9999.0,Calm,Calm,-,N/A,,Unknown,0,2013-10-30 00:54:00
9:54 PM,46.0,35.1,66,30.38,-9999.0,North,3.5,-,N/A,,Unknown,350,2013-10-30 01:54:00
10:54 PM,43.0,32.0,65,30.39,-9999.0,Calm,Calm,-,N/A,,Unknown,0,2013-10-30 02:54:00
11:54 PM,37.0,30.9,79,30.38,-9999.0,Calm,Calm,-,N/A,,Unknown,0,2013-10-30 03:54:00